Naples, FL

11:46 PM EDT on September 25, 2017 (GMT -0400)
Naples Municipal

Weather History for KAPF - January, 2011

Change the Weather History Date:

Friday, January 28, 2011

  Actual Average Record
Temperature  
Mean Temperature 57 °F 65 °F  
Max Temperature 65 °F 75 °F 87 °F (1975)
Min Temperature 49 °F 55 °F 32 °F (1986)
Degree Days  
Heating Degree Days 8 3  
Month to date heating degree days 89 97  
Since 1 July heating degree days 324 175  
Cooling Degree Days 0 2  
Month to date cooling degree days 63 82  
Year to date cooling degree days 63 82  
Growing Degree Days 7 (Base 50)    
Moisture  
Dew Point 44 °F    
Average Humidity 61    
Maximum Humidity 86    
Minimum Humidity 36    
Precipitation  
Precipitation 0.00 in 0.07 in 0.96 in (2016)
Month to date precipitation 1.50 1.62  
Year to date precipitation 1.50 1.62  
Snow  
Snow 0.00 in - - ()
Month to date snowfall 0.0  
Since 1 July snowfall 0.0  
Snow Depth 0.00 in    
Sea Level Pressure  
Sea Level Pressure 30.11 in    
Wind  
Wind Speed 5 mph (NNW)    
Max Wind Speed 15 mph    
Max Gust Speed 21 mph    
Visibility 10 miles    
Events      
T = Trace of Precipitation, MM = Missing Value Source: NWS Daily Summary

Daily Weather History Graph

Daily Weather History Graph

Search for Another Location

Airport or City:

Trip Planner

Search our weather history database for the weather conditions in past years. The results will help you decide how hot, cold, wet, or windy it might be!

Date:

Astronomy

Jan. 28, 2011 Rise Set
Actual Time 7:13 AM EST 6:07 PM EST
Civil Twilight 6:48 AM EST 6:31 PM EST
Nautical Twilight 6:21 AM EST 6:59 PM EST
Astronomical Twilight 5:53 AM EST 7:26 PM EST
Moon 2:37 AM EST (1/28) 1:22 PM EST (1/28)
Length of Visible Light 11h 42m
Length of Day
10h 53m
Waning Crescent, 27% of the Moon is Illuminated
Jan 28
Waning Crescent
Feb 2
New
Feb 11
First Quarter
Feb 18
Full
Feb 24
Last Quarter

Hourly Weather History & Observations

Time (EST) Temp. Dew Point Humidity Pressure Visibility Wind Dir Wind Speed Gust Speed Precip Events Conditions
12:53 AM 53.1 °F 45.0 °F 74% 30.09 in 10.0 mi NNW 3.5 mph - N/A   Clear
1:53 AM 52.0 °F 44.1 °F 74% 30.08 in 10.0 mi Calm Calm - N/A   Clear
2:53 AM 53.1 °F 44.1 °F 71% 30.07 in 10.0 mi Calm Calm - N/A   Clear
3:53 AM 52.0 °F 44.1 °F 74% 30.06 in 10.0 mi Calm Calm - N/A   Clear
4:53 AM 55.0 °F 46.9 °F 74% 30.08 in 10.0 mi NW 4.6 mph - N/A   Clear
5:53 AM 54.0 °F 46.9 °F 77% 30.09 in 10.0 mi NNE 4.6 mph - N/A   Mostly Cloudy
6:03 AM 53.6 °F 46.4 °F 77% 30.10 in 10.0 mi North 3.5 mph - N/A   Scattered Clouds
6:53 AM 54.0 °F 46.9 °F 77% 30.11 in 10.0 mi North 5.8 mph - N/A   Scattered Clouds
7:53 AM 55.0 °F 46.0 °F 72% 30.13 in 10.0 mi North 5.8 mph - N/A   Clear
8:53 AM 54.0 °F 45.0 °F 72% 30.15 in 10.0 mi North 4.6 mph - N/A   Clear
9:53 AM 55.0 °F 39.9 °F 57% 30.17 in 10.0 mi North 3.5 mph - N/A   Clear
10:53 AM 57.9 °F 37.0 °F 46% 30.16 in 10.0 mi North 4.6 mph - N/A   Clear
11:53 AM 63.0 °F 35.1 °F 35% 30.13 in 10.0 mi North 5.8 mph - N/A   Clear
12:53 PM 63.0 °F 39.0 °F 41% 30.10 in 10.0 mi WNW 9.2 mph - N/A   Clear
1:53 PM 64.0 °F 37.9 °F 38% 30.08 in 10.0 mi WNW 10.4 mph - N/A   Clear
2:53 PM 63.0 °F 41.0 °F 45% 30.07 in 10.0 mi WNW 11.5 mph - N/A   Clear
3:53 PM 63.0 °F 41.0 °F 45% 30.07 in 10.0 mi WNW 11.5 mph - N/A   Clear
4:53 PM 62.1 °F 46.9 °F 58% 30.09 in 10.0 mi NW 11.5 mph 18.4 mph N/A   Clear
5:53 PM 60.1 °F 46.0 °F 60% 30.10 in 10.0 mi NW 10.4 mph - N/A   Clear
6:53 PM 57.9 °F 46.9 °F 67% 30.11 in 10.0 mi NNW 4.6 mph - N/A   Clear
7:53 PM 57.0 °F 48.0 °F 72% 30.12 in 10.0 mi Calm Calm - N/A   Clear
8:53 PM 54.0 °F 48.0 °F 80% 30.13 in 10.0 mi Calm Calm - N/A   Clear
9:53 PM 52.0 °F 46.9 °F 83% 30.15 in 10.0 mi Calm Calm - N/A   Clear
10:53 PM 50.0 °F 46.0 °F 86% 30.15 in 10.0 mi Calm Calm - N/A   Clear
11:53 PM 48.9 °F 46.0 °F 90% 30.14 in 8.0 mi Calm Calm - N/A   Clear